フィエチジョシュ彗星

P/2021 U1 ( Wierzchos )

English version
Home page
Updated on March 27, 2022

---------------------------------------------------------------------

・ プロフィール

発見日 2021年10月18日
発見光度 19.1等
発見者 Kacper W. Wierzchos (Mt. Lemmon)

・ 写真集

・ 軌道要素

Epoch 2022 Jan. 21.0 TT = JDT 2459600.5
T 2021 Sept. 30.98696 TT                                Rudenko
q   2.4450186            (2000.0)            P               Q
n   0.03968952     Peri.  145.04828     +0.77640795     -0.42287805
a   8.5117486      Node   246.78951     +0.39689560     +0.90404447
e   0.7127478      Incl.   30.56047     +0.48955550     -0.06227157
P  24.8
From 239 observations 2021 Sept. 20-2022 Feb. 23, mean residual 0".4.

・ 光度変化

        m1 = 9.0 + 5 logΔ + 20.0 log r(t - 100)

---------------------------------------------------------------------

軌道要素はM.P.E.C. 2022-E133に掲載されたものです。
光度グラフはComet for Windowsで作成したものです。

---------------------------------------------------------------------

Copyright(C) Seiichi Yoshida (comet@aerith.net). All rights reserved.